{"data":{"norad_id":60275,"epoch":"2026-09-21T21:37:16.076064Z","epoch_age_seconds":61298,"freshness":"FRESH","line1":"1 60275U 24131W   26264.90088051 -.00000505  00000+0 -38084-5 0  9991","line2":"2 60275  53.1599 219.3312 0001346  89.8440 270.2716 15.34384608121687","mean_motion":15.34384608,"eccentricity":0.0001346,"inclination_deg":53.1599,"raan_deg":219.3312,"arg_perigee_deg":89.844,"mean_anomaly_deg":270.2716,"bstar":-3.8084e-6,"rev_number":12168,"period_min":93.84869950416,"perigee_km":461.82820560315,"apogee_km":463.66977211135,"semimajor_km":6840.8859888573,"source":"CELESTRAK","updated_at":"2026-09-22T09:00:49.190414Z"}}